| time (UTC) | temp F | wind direction | speed knots | gust knots | rain 1hr in | rain 24hr in | rain mn in | humidity % | barometer mb |
| 20260506044558 | 49 | 325 | 3.5 | 7.0 | 0.00 | 0.00 | 0.00 | 92 | 1017.5 |
| 20260506043111 | 49 | 318 | 0.9 | 3.5 | 0.00 | 0.00 | 0.00 | 92 | 1017.3 |
| 20260506041600 | 48 | 0 | 0.0 | 3.5 | 0.00 | 0.00 | 0.00 | 92 | 1017.1 |
| 20260506040057 | 47 | 0 | 0.0 | 2.6 | 0.00 | 0.00 | 0.00 | 97 | 1017.1 |
| 20260506034615 | 48 | 0 | 0.0 | 1.7 | 0.00 | 0.00 | 0.00 | 96 | 1016.8 |
| 20260506033055 | 49 | 0 | 0.0 | 0.0 | 0.00 | 0.00 | 0.00 | 96 | 1016.6 |
| 20260506031555 | 49 | 0 | 0.0 | 2.6 | 0.00 | 0.00 | 0.00 | 96 | 1016.7 |
| 20260506030057 | 49 | 0 | 0.0 | 0.9 | 0.00 | 0.00 | 0.00 | 96 | 1016.7 |
| 20260506024554 | 50 | 0 | 0.0 | 2.6 | 0.00 | 0.00 | 0.00 | 96 | 1016.5 |
| 20260506023104 | 50 | 360 | 0.9 | 3.5 | 0.00 | 0.00 | 0.00 | 93 | 1016.5 |
| 20260506021553 | 52 | 25 | 0.9 | 2.6 | 0.00 | 0.00 | 0.00 | 92 | 1016.4 |
| 20260506020055 | 52 | 0 | 0.0 | 1.7 | 0.00 | 0.00 | 0.00 | 92 | 1016.4 |
| 20260506014553 | 51 | 75 | 1.7 | 3.5 | 0.00 | 0.00 | 0.00 | 93 | 1016.4 |
| 20260506013110 | 52 | 50 | 3.5 | 7.0 | 0.00 | 0.00 | 0.00 | 92 | 1016.2 |
| 20260506011601 | 52 | 0 | 0.0 | 2.6 | 0.00 | 0.00 | 0.00 | 92 | 1016.2 |
| 20260506010117 | 52 | 0 | 0.0 | 2.6 | 0.00 | 0.00 | 0.00 | 91 | 1016.1 |
| 20260506004556 | 52 | 0 | 0.0 | 1.7 | 0.00 | 0.00 | 0.00 | 92 | 1016.1 |
| 20260506003052 | 52 | 0 | 0.0 | 2.6 | 0.00 | 0.00 | 0.00 | 92 | 1016.2 |
| 20260506001602 | 52 | 0 | 0.0 | 2.6 | 0.00 | 0.00 | 0.00 | 91 | 1016.2 |
| 20260506000055 | 52 | 150 | 0.0 | 4.3 | 0.00 | 0.00 | 0.00 | 92 | 1016.1 |
| 20260505234553 | 53 | 360 | 0.9 | 6.1 | 0.00 | 0.00 | 0.00 | 90 | 1016.3 |
| 20260505233104 | 52 | 20 | 0.0 | 5.2 | 0.00 | 0.00 | 0.00 | 92 | 1016.3 |
| 20260505231555 | 51 | 22 | 3.5 | 7.8 | 0.00 | 0.00 | 0.00 | 92 | 1016.3 |
| 20260505230058 | 51 | 5 | 3.5 | 7.0 | 0.00 | 0.00 | 0.00 | 92 | 1016.3 |
| 20260505224558 | 52 | 0 | 3.5 | 7.8 | 0.00 | 0.00 | 0.00 | 90 | 1016.4 |
| 20260505223054 | 54 | 96 | 2.6 | 8.7 | 0.00 | 0.00 | 0.00 | 88 | 1016.4 |
| 20260505221556 | 52 | 17 | 3.5 | 7.8 | 0.00 | 0.00 | 0.00 | 87 | 1016.5 |
| 20260505220056 | 53 | 13 | 0.9 | 8.7 | 0.00 | 0.00 | 0.00 | 90 | 1016.4 |
| 20260505214619 | 53 | 0 | 4.3 | 7.8 | 0.00 | 0.00 | 0.00 | 88 | 1016.4 |
| 20260505213102 | 54 | 27 | 0.9 | 3.5 | 0.00 | 0.00 | 0.00 | 87 | 1016.4 |
| 20260505211555 | 53 | 0 | 0.9 | 7.0 | 0.00 | 0.00 | 0.00 | 88 | 1016.4 |
| 20260505210055 | 52 | 0 | 0.9 | 7.8 | 0.00 | 0.00 | 0.00 | 89 | 1016.5 |
| 20260505204554 | 53 | 292 | 2.6 | 7.0 | 0.00 | 0.00 | 0.00 | 87 | 1016.7 |
| 20260505203054 | 53 | 5 | 1.7 | 7.0 | 0.00 | 0.00 | 0.00 | 89 | 1016.6 |
| 20260505201558 | 53 | 312 | 2.6 | 7.0 | 0.00 | 0.00 | 0.00 | 88 | 1016.6 |
| 20260505200055 | 52 | 24 | 2.6 | 7.0 | 0.00 | 0.00 | 0.00 | 91 | 1016.5 |
| 20260505194556 | 51 | 323 | 2.6 | 9.6 | 0.00 | 0.00 | 0.00 | 92 | 1016.6 |
| 20260505193054 | 51 | 319 | 2.6 | 7.0 | 0.00 | 0.00 | 0.00 | 93 | 1016.5 |
| 20260505191604 | 49 | 29 | 3.5 | 7.0 | 0.00 | 0.00 | 0.00 | 94 | 1016.4 |
| 20260505190058 | 50 | 11 | 2.6 | 6.1 | 0.00 | 0.00 | 0.00 | 97 | 1016.4 |
| 20260505184556 | 49 | 324 | 2.6 | 6.1 | 0.00 | 0.00 | 0.00 | 99 | 1016.3 |
| 20260505183113 | 48 | 316 | 0.9 | 5.2 | 0.00 | 0.00 | 0.00 | 100 | 1016.4 |
| 20260505181558 | 48 | 12 | 1.7 | 4.3 | 0.00 | 0.00 | 0.00 | 100 | 1016.2 |
| 20260505180055 | 48 | 0 | 0.0 | 5.2 | 0.00 | 0.00 | 0.00 | 100 | 1016.1 |
| 20260505174556 | 47 | 0 | 3.5 | 7.0 | 0.00 | 0.00 | 0.00 | 100 | 1015.9 |
| 20260505173054 | 47 | 5 | 2.6 | 5.2 | 0.00 | 0.00 | 0.00 | 100 | 1015.9 |
| 20260505171601 | 48 | 360 | 0.0 | 2.6 | 0.00 | 0.00 | 0.00 | 100 | 1015.8 |
| 20260505170055 | 47 | 0 | 0.0 | 2.6 | 0.00 | 0.00 | 0.00 | 99 | 1015.7 |
| 20260505164554 | 45 | 135 | 0.0 | 2.6 | 0.00 | 0.00 | 0.00 | 99 | 1015.6 |
| 20260505163049 | 45 | 0 | 0.0 | 1.7 | 0.00 | 0.00 | 0.00 | 99 | 1015.6 |
| 20260505161615 | 46 | 0 | 0.0 | 1.7 | 0.00 | 0.00 | 0.00 | 100 | 1015.5 |
| 20260505153055 | 44 | 0 | 0.0 | 2.6 | 0.00 | 0.00 | 0.00 | 99 | 1015.4 |
| 20260505151549 | 44 | 152 | 0.0 | 4.3 | 0.00 | 0.00 | 0.00 | 99 | 1015.3 |
| 20260505124612 | 46 | 0 | 0.0 | 1.7 | 0.00 | 0.00 | 0.00 | 99 | 1014.6 |
| 20260505123110 | 46 | 97 | 0.0 | 1.7 | 0.00 | 0.00 | 0.00 | 99 | 1014.4 |
| 20260505121553 | 46 | 0 | 0.0 | 0.9 | 0.00 | 0.00 | 0.00 | 99 | 1014.3 |
| 20260505120111 | 45 | 0 | 0.0 | 0.0 | 0.00 | 0.00 | 0.00 | 99 | 1014.2 |
| 20260505114552 | 45 | 0 | 1.7 | 3.5 | 0.00 | 0.00 | 0.00 | 99 | 1014.1 |
| 20260505113051 | 45 | 155 | 1.7 | 4.3 | 0.00 | 0.00 | 0.00 | 99 | 1014.3 |
| 20260505111556 | 46 | 159 | 2.6 | 4.3 | 0.00 | 0.00 | 0.00 | 99 | 1014.1 |
| 20260505101557 | 47 | 0 | 0.0 | 0.0 | 0.00 | 0.00 | 0.00 | 99 | 1014.3 |
| 20260505100056 | 47 | 0 | 0.0 | 0.9 | 0.00 | 0.00 | 0.00 | 99 | 1014.3 |
| 20260505094556 | 47 | 0 | 0.0 | 0.9 | 0.00 | 0.00 | 0.00 | 99 | 1014.2 |
| 20260505093059 | 48 | 0 | 0.0 | 2.6 | 0.00 | 0.00 | 0.00 | 99 | 1014.1 |
| 20260505091606 | 48 | 178 | 0.0 | 3.5 | 0.00 | 0.00 | 0.00 | 99 | 1014.2 |
| 20260505090055 | 48 | 168 | 1.7 | 6.1 | 0.00 | 0.00 | 0.00 | 99 | 1014.2 |
| 20260505084557 | 48 | 167 | 3.5 | 6.1 | 0.00 | 0.00 | 0.00 | 99 | 1014.1 |
| 20260505083057 | 48 | 171 | 3.5 | 7.0 | 0.00 | 0.00 | 0.00 | 99 | 1014.3 |
| 20260505081554 | 48 | 169 | 3.5 | 6.1 | 0.00 | 0.00 | 0.00 | 99 | 1014.3 |
| 20260505080054 | 48 | 159 | 2.6 | 6.1 | 0.00 | 0.00 | 0.00 | 99 | 1014.3 |
| 20260505074559 | 48 | 167 | 2.6 | 5.2 | 0.00 | 0.00 | 0.00 | 99 | 1014.3 |
| 20260505073105 | 48 | 160 | 2.6 | 5.2 | 0.00 | 0.00 | 0.00 | 99 | 1014.1 |
| 20260505071559 | 49 | 163 | 2.6 | 6.1 | 0.00 | 0.00 | 0.00 | 98 | 1014.2 |
| 20260505070054 | 49 | 151 | 2.6 | 7.0 | 0.00 | 0.00 | 0.00 | 98 | 1014.3 |
| 20260505064551 | 49 | 146 | 4.3 | 7.0 | 0.00 | 0.00 | 0.00 | 98 | 1014.3 |
| 20260505063053 | 49 | 145 | 1.7 | 6.1 | 0.00 | 0.00 | 0.00 | 98 | 1014.3 |
| 20260505061554 | 49 | 155 | 1.7 | 4.3 | 0.00 | 0.00 | 0.00 | 98 | 1014.3 |
| 20260505060051 | 49 | 139 | 1.7 | 5.2 | 0.00 | 0.00 | 0.00 | 98 | 1014.3 |